Klawock, AK

5:24 PM AKST on January 16, 2018 (GMT -0900)
Klawock

Weather History for PAKW - January, 2014

Change the Weather History Date:

Monday, January 13, 2014

  Actual Average Record
Temperature  
Mean Temperature 44 °F -  
Max Temperature 50 °F 36 °F 50 °F (2014)
Min Temperature 39 °F 29 °F 12 °F (2005)
Degree Days  
Heating Degree Days 20    
Moisture  
Dew Point 37 °F    
Average Humidity 82    
Maximum Humidity 93    
Minimum Humidity 71    
Precipitation  
Precipitation 0.44 in - - ()
Sea Level Pressure  
Sea Level Pressure 30.02 in    
Wind  
Wind Speed 9 mph (SSW)    
Max Wind Speed 17 mph    
Max Gust Speed 34 mph    
Visibility 8 miles    
Events Rain    
Averages and records for this station are not official NWS values.
T = Trace of Precipitation, MM = Missing Value Source: NWS Daily Summary

Daily Weather History Graph

Daily Weather History Graph

Search for Another Location

Airport or City:

Trip Planner

Search our weather history database for the weather conditions in past years. The results will help you decide how hot, cold, wet, or windy it might be!

Date:

Astronomy

Jan. 13, 2014 Rise Set
Actual Time 8:12 AM AKST 3:49 PM AKST
Civil Twilight 7:28 AM AKST 4:33 PM AKST
Nautical Twilight 6:41 AM AKST 5:20 PM AKST
Astronomical Twilight 5:57 AM AKST 6:05 PM AKST
Moon 2:14 PM AKST (1/13) 6:04 AM AKST (1/13)
Length of Visible Light 9h 05m
Length of Day
7h 36m
Waxing Gibbous, 95% of the Moon is Illuminated
Jan 13
Waxing Gibbous
Jan 15
Full
Jan 23
Last Quarter
Jan 30
New
Feb 6
First Quarter

Hourly Weather History & Observations

Time (AKST) Temp. Windchill Dew Point Humidity Pressure Visibility Wind Dir Wind Speed Gust Speed Precip Events Conditions
12:53 AM 41.0 °F 34.3 °F 35.1 °F 79% 29.78 in 10.0 mi WSW 11.5 mph 31.1 mph 0.00 in   Overcast
1:53 AM 41.0 °F 34.7 °F 35.1 °F 79% 29.82 in 10.0 mi WSW 10.4 mph - 0.00 in   Overcast
3:53 AM 41.0 °F 34.7 °F 33.1 °F 73% 29.93 in 10.0 mi SW 10.4 mph 18.4 mph 0.00 in   Overcast
4:53 AM 41.0 °F 35.8 °F 34.0 °F 76% 29.96 in 10.0 mi South 8.1 mph - N/A   Overcast
6:06 AM 39.0 °F 31.4 °F 36.0 °F 89% 29.99 in 4.0 mi WSW 12.7 mph 19.6 mph 0.01 in Rain Light Rain
6:53 AM 39.0 °F 34.8 °F 36.0 °F 89% 30.01 in 10.0 mi South 5.8 mph - 0.02 in   Overcast
7:53 AM 39.9 °F 35.1 °F 35.1 °F 83% 30.04 in 10.0 mi SSE 6.9 mph - N/A   Overcast
8:53 AM 39.9 °F 35.8 °F 36.0 °F 86% 30.07 in 10.0 mi South 5.8 mph - N/A   Mostly Cloudy
9:53 AM 42.1 °F 37.7 °F 36.0 °F 79% 30.10 in 10.0 mi South 6.9 mph - N/A   Mostly Cloudy
10:53 AM 43.0 °F 38.8 °F 36.0 °F 76% 30.12 in 10.0 mi South 6.9 mph - N/A   Mostly Cloudy
11:53 AM 44.1 °F 39.5 °F 35.1 °F 71% 30.14 in 10.0 mi SSW 8.1 mph - N/A   Overcast
12:53 PM 44.1 °F 40.8 °F 36.0 °F 73% 30.13 in 10.0 mi Variable 5.8 mph - N/A   Mostly Cloudy
1:53 PM 42.1 °F 39.2 °F 36.0 °F 79% 30.14 in 5.0 mi Variable 4.6 mph - 0.01 in Rain Light Rain
2:25 PM 41.0 °F 36.4 °F 37.0 °F 86% 30.13 in 10.0 mi Variable 6.9 mph - 0.01 in   Overcast
2:53 PM 41.0 °F - 36.0 °F 82% 30.14 in 10.0 mi Calm Calm - 0.01 in   Overcast
3:53 PM 43.0 °F 38.2 °F 35.1 °F 74% 30.10 in 10.0 mi SSW 8.1 mph - N/A   Overcast
4:53 PM 43.0 °F 38.2 °F 35.1 °F 74% 30.06 in 10.0 mi South 8.1 mph - N/A   Overcast
5:41 PM 42.1 °F - 35.1 °F 76% 30.03 in 8.0 mi North - - 0.01 in Rain Light Rain
5:53 PM 41.0 °F 35.8 °F 35.1 °F 79% 30.02 in 7.0 mi South 8.1 mph 25.3 mph 0.02 in Rain Light Rain
6:18 PM 39.9 °F 35.1 °F 36.0 °F 86% 30.00 in 4.0 mi Variable 6.9 mph 20.7 mph 0.06 in Rain Rain
6:53 PM 39.0 °F 31.4 °F 36.0 °F 89% 30.00 in 7.0 mi South 12.7 mph 21.9 mph 0.10 in Rain Light Rain
8:53 PM 44.1 °F 39.5 °F 41.0 °F 89% 29.95 in 3.0 mi South 8.1 mph 19.6 mph 0.04 in Rain Light Rain
9:53 PM 48.0 °F - 46.0 °F 93% 29.96 in 5.0 mi SSW 17.3 mph 29.9 mph 0.03 in Rain Light Rain
10:53 PM 50.0 °F - 46.9 °F 89% 29.92 in 7.0 mi South 13.8 mph 34.5 mph 0.03 in Rain Light Rain
11:53 PM 48.0 °F - 46.0 °F 93% 29.91 in 4.0 mi South 10.4 mph - 0.18 in Rain Rain